Вернуться в каталог

STARLINK-32674

АктивенСвязьVLEO
NORAD 62434·PAYLOAD·🇺🇸 United States

Запущен Dec 29, 2024 с Vandenberg Space Force Base

Loading…

Ближайшие Пролёты (ближайшие 24 часа)

TLE

СвежийSource: CelesTrak SupGP

Эпоха: Sep 15, 2026, 03:06 UTC

1 62434C 24251C   26258.12965278 -.00009713  00000+0 -28701-3 0  2586
2 62434  53.1568 172.5133 0001463  82.5811 253.5190 15.34389388    18

Отслеживайте STARLINK-32674 в реальном времени с AllMySat

Download on the App Store